Regional Weather Roundup
Issued by NWS Sioux Falls, SD

Home | Current Version | Previous Version | Graphics & Text | Print | Product List | Glossary Off
Versions: 1 2 3 4 5 6 7 8 9 10 11 12 13 14 15 16 17 18 19 20 21 22 23 24 25 26 27 28 29 30 31 32 33 34 35 36 37 38 39 40 41 42 43 44 45 46 47 48 49 50

000
ASUS43 KFSD 061702
RWRFSD

WEATHER ROUNDUP FOR SE SOUTH DAKOTA/SW MINNESOTA/NW IOWA
NATIONAL WEATHER SERVICE SIOUX FALLS SD
1200 PM CDT WED MAY 06 2015

NOTE: "FAIR" INDICATES FEW OR NO CLOUDS BELOW 12,000 FEET WITH NO
SIGNIFICANT WEATHER AND OR OBSTRUCTIONS TO VISIBILITY.


SDZ038>040-050-052>070-061800-
SOUTHEAST SOUTH DAKOTA

CITY           SKY/WX    TMP DP  RH WIND       PRES   REMARKS
BROOKINGS      CLOUDY    66  61  82 SE18G28   29.82F
CHAMBERLAIN    NOT AVBL
HURON          RAIN      63  61  93 SE10      29.75F FOG
MADISON        LGT RAIN  63  63 100 SE23      29.80F
MITCHELL       LGT RAIN  63  61  93 SE18      29.75F FOG
SIOUX FALLS    RAIN      65  59  81 SE21G30   29.81F
WINNER         CLOUDY    67  57  70 SE16      29.70F
YANKTON        CLOUDY    64  59  82 SE20      29.75F
$$

MNZ071-072-080-081-089-090-097-098-061800-
SOUTHWEST MINNESOTA

CITY           SKY/WX    TMP DP  RH WIND       PRES   REMARKS
FAIRMONT       PTSUNNY   70  36  28 SE22G28   29.91F
JACKSON        CLOUDY    72  59  64 SE21G26   29.90F
LUVERNE        CLOUDY    70  59  68 SE22      29.84S
MARSHALL       CLOUDY    66  55  68 SE18G24   29.87F
MONTEVIDEO     CLOUDY    66  61  82 S21       29.90F
REDWOOD FALLS  CLOUDY    68  59  73 E20G26    29.89F
TRACY          CLOUDY    68  61  77 SE18G25   29.88F
WORTHINGTON    CLOUDY    72  59  64 SE25      29.86F
$$

IAZ001>003-012>014-020>022-031-032-NEZ013-014-SDZ071-061800-
NORTHWEST IOWA

CITY           SKY/WX    TMP DP  RH WIND       PRES   REMARKS
DENISON        CLOUDY    68  63  83 S23G32    29.86S
ESTHERVILLE    PTSUNNY   72  61  68 SE25      29.89F
SIOUX CITY     LGT RAIN  64  60  87 S14       29.83S
SPENCER        CLOUDY    71  61  70 SE24G37   29.88S
$$

ABBREVIATIONS USED IN REMARKS
   TC - TEMPERATURE IN CELSIUS
  WCI - WIND CHILL INDEX
   HX - HEAT INDEX
  VSB - VISIBILITY



USA.gov is the U.S. government's official web portal to all federal, state and local government web resources and services.